User: anonymous   Login
Location: Churchill
(58.7670°N, 94.1670°W)
Time: 08:59:42
(UTC-06:00)
Language:

Cosmos 2142 Rocket - Orbit

View from above orbital plane
View from above orbital plane
View from above satellite
View from above satellite

Ground track
Ground track

The orbit data is extracted from the following two-line orbital elements,

1 21231U 91029B   14328.95183899  .00000096  00000-0  83995-4 0  5944
2 21231 082.9531 081.3903 0033855 323.6893 174.2173 13.75645362185192
Epoch (UTC): 24 November 2014 22:50:38
Eccentricity: 0.0033855
inclination: 82.9531°
perigee height: 954 km
apogee height: 1004 km
right ascension of ascending node: 81.3903°
argument of perigee: 323.6893°
revolutions per day: 13.75645362
mean anomaly at epoch: 174.2173°
orbit number at epoch: 18519

The dashed part of the orbit path shows where the satellite is in the earth's shadow,  

DLR